Powrót do katalogu

STARLINK-11262

AktywnyŁącznośćVLEO
NORAD 62009·PAYLOAD·🇺🇸 United States

Wystrzelony Nov 18, 2024 z Vandenberg Space Force Base

Loading…

Następne Przeloty (najbliższe 24 godziny)

TLE

ŚwieżeSource: CelesTrak SupGP

Epoka: Sep 15, 2026, 03:02 UTC

1 62009C 24213B   26258.12687500 -.00024725  00000+0 -20362-3 0  2586
2 62009  53.1588 187.6892 0001263  85.3548 310.0659 15.69727400    11

Śledź STARLINK-11262 w czasie rzeczywistym z AllMySat

Download on the App Store